Location: *
(44.3925°N, 5.4708°E)
Time: 22:22:41
(UTC+00:00)

Cosmos 2074 Rocket - Pass Details

Date: 18 September 2019
Orbit: 966 x 987 km, 82.9° (Epoch: 20 October)

Event Time Altitude Azimuth Distance (km) Brightness Sun altitude
Rises 18:20:54 0° 352° (N) 3,687 7.3 -7.4°
Reaches altitude 10° 18:23:26 10° 353° (N) 2,732 6.6 -7.8°
Maximum altitude 18:29:43 83° 82° (E) 984 4.0 -9.0°
Drops below altitude 10° 18:35:55 10° 171° (S) 2,702 6.1 -10.0°
Sets 18:38:24 0° 172° (S) 3,643 6.8 -10.5°
